Tracking 20942 objects as of 14-Jul-2020
HD Live streaming from Space Station
objects crossing your sky now

COSMOS 507


10-day predictions
COSMOS 507 is classified as:


NORAD ID: 6120
Int'l Code: 1972-057D
Perigee: 1,417.8 km
Apogee: 1,503.6 km
Inclination: 74.0 °
Period: 115.0 minutes
Semi major axis: 7831 km
RCS: 0.7026 m2 (medium)
Launch date: July 20, 1972
Source: Commonwealth of Independent States (former USSR) (CIS)
Launch site: PLESETSK MISSILE AND SPACE COMPLEX (PKMTR)
aabbcc
Your satellite tracking list
Your tracking list is empty




NASA's NSSDC Master Catalog

Two Line Element Set (TLE):
1  6120U 72057D   20195.84307156 -.00000016 +00000-0 +11450-5 0  9995
2  6120 074.0249 218.6119 0054764 275.8188 257.4324 12.52614063193932
Source of the keplerian elements: AFSPC